Voltar ao catálogo

QZS-7

AtivoGEO
NORAD 100270·PAYLOAD·🇯🇵 Japan

Lançado Aug 10, 2026 de Tanegashima Space Center

Loading…

TLE

AtualizadoSource: Space-Track

Época: Sep 14, 2026, 18:06 UTC

1 A0270U 26182A   26257.75430084  .00000070  00000-0  00000-0 0  9998
2 A0270   2.9593 301.0714 0074473 358.7714 149.9429  1.00289703   395

Acompanhe QZS-7 em tempo real com AllMySat

Download on the App Store